Location: Bois Neuf
(42.7667°N, 0.6333°E)
Time: 01:13:03
(UTC+00:00)

Daily predictions for brighter satellites

Satellite Brightness Start Highest point End
(mag) Time Altitude Azimuth Time Altitude Azimuth Time Altitude Azimuth
STARLINK-1240 4.1 00:00:41 10° NW 00:03:59 55° NW 00:03:59 55° NW
Cosmos 1570 Rocket 4.5 00:04:53 44° ESE 00:05:15 45° ESE 00:10:17 10° NNE
Cosmos 1763 Rocket 3.3 00:05:58 72° SSE 00:06:20 76° ESE 00:11:25 10° NNE
Cosmos 1709 Rocket 4.5 00:05:05 39° SE 00:06:38 47° E 00:12:31 10° NNE
Cosmos 2227 Rocket 2.1 00:03:40 10° NNW 00:09:21 74° WSW 00:10:10 63° SSW
STARLINK-1216 4.2 00:05:41 10° NW 00:08:47 49° WNW 00:08:47 49° WNW
Landsat 4 4.2 00:06:16 10° N 00:09:24 56° NNW 00:09:24 56° NNW
Cosmos 1356 Rocket 3.8 00:10:06 10° NNW 00:13:55 56° WNW 00:13:55 56° WNW
STARLINK-1237 4.4 00:10:40 10° WNW 00:13:34 43° WNW 00:13:34 43° WNW
Cosmos 1758 Rocket 4.2 00:15:28 43° E 00:15:29 43° E 00:19:41 10° NNE
SL-16 R/B 4.5 00:11:21 10° ESE 00:15:53 22° ENE 00:20:26 10° NNE
STARLINK-1283 4.3 00:20:03 45° ENE 00:20:03 45° ENE 00:23:03 10° ENE
Nadezhda 1 Rocket 4.0 00:17:38 10° NNW 00:23:53 74° W 00:25:28 52° SSW
SL-16 R/B 4.2 00:22:44 13° ESE 00:24:03 14° E 00:26:58 10° ENE
Cosmos 2208 Rocket 4.2 00:23:37 52° SE 00:24:13 56° ESE 00:29:27 10° NNE
CZ-4 R/B 3.6 00:19:48 10° NNE 00:24:33 85° ESE 00:24:50 78° S
Cosmos 1300 4.4 00:21:43 10° NNW 00:24:09 24° WNW 00:24:09 24° WNW
Cosmos 2285 Rocket 4.1 00:23:03 10° NNW 00:29:24 70° ENE 00:31:55 38° SE
USA 81 4.1 00:30:17 57° SE 00:31:11 69° E 00:36:27 10° N
CZ-2D R/B 3.9 00:29:44 10° NE 00:33:27 19° E 00:35:02 17° ESE
Cosmos 1953 Rocket 4.5 00:33:32 36° ESE 00:33:52 37° E 00:37:56 10° NNE
Cosmos-2242 3.5 00:29:53 10° N 00:34:01 48° ENE 00:34:23 47° E
USA 215 3.3 00:28:07 12° ESE 00:34:16 79° NE 00:40:50 10° NW
Meteor 2-10 Rocket 3.3 00:29:25 10° N 00:34:33 86° ENE 00:35:16 66° SSE
Cosmos 1626 Rocket 4.3 00:34:39 40° W 00:34:47 40° WNW 00:38:55 10° N
BREEZE-M R/B 4.5 00:28:39 10° W 00:35:25 43° NNW 00:38:56 10° NE
Meteor 1-21 Rocket 4.2 00:34:27 58° SSW 00:35:39 84° W 00:41:29 10° N
STARLINK-1272 4.2 00:42:02 44° NE 00:42:02 44° NE 00:44:34 10° NE
Cosmos 540 Rocket 3.3 00:41:07 65° S 00:41:49 79° ESE 00:46:57 10° NNE
STARLINK-1307 3.8 00:46:48 58° NE 00:46:48 58° NE 00:49:54 10° NE
STARLINK-1290 3.7 00:50:11 62° NNE 00:50:11 62° NNE 00:53:24 10° NE
Helios 1B rocket 2.8 00:46:15 10° N 00:50:18 54° WNW 00:50:24 54° W
Cosmos 1980 Rocket 2.1 00:51:50 56° SSW 00:53:07 87° ESE 00:58:49 10° NNE
STARLINK-1317 3.7 00:56:33 63° NW 00:56:39 64° NNW 01:00:33 10° NE
Uosat 12 SS-18 rocket 4.0 00:53:45 10° NW 00:58:02 71° WSW 00:58:02 71° WSW
Meteor 1-29 3.7 00:55:30 10° N 00:58:11 49° NNW 00:58:11 49° NNW
Cosmos 1328 3.7 00:59:35 81° NW 00:59:35 81° NW 01:03:30 10° N
Cosmos 1455 2.9 00:57:04 10° NNW 01:00:05 44° WNW 01:00:05 44° WNW
STARLINK-1274 3.8 01:00:56 55° NNW 01:00:56 55° NNW 01:04:13 10° NE
Cosmos 2369 4.4 01:02:04 33° WSW 01:04:04 46° WNW 01:09:32 10° NNE
STARLINK-1291 3.8 01:04:15 55° NW 01:04:24 56° NNW 01:08:05 10° NE
Meteor 1-11 4.3 01:03:54 45° SSE 01:05:34 67° E 01:11:07 10° NNE
Cosmos 1703 3.4 01:05:53 61° WNW 01:05:53 61° WNW 01:09:40 10° N
Cosmos 1937 Rocket 3.9 01:01:47 10° NNW 01:06:47 44° WSW 01:07:10 43° WSW
STARLINK-1264 3.9 01:07:26 51° NW 01:07:44 53° NNW 01:11:24 10° NE
Lacrosse 4 Rocket 2.8 01:04:47 10° NW 01:07:19 26° W 01:07:19 26° W
Cosmos 1825 Rocket 3.6 01:08:39 57° W 01:08:57 58° W 01:13:15 10° N
STARLINK-1295 4.4 01:11:26 39° ESE 01:11:26 39° ESE 01:14:49 10° ENE
STARLINK-1267 4.0 01:10:40 47° WNW 01:11:06 50° NNW 01:14:45 10° NE
Cosmos 2263 Rocket 2.9 01:05:58 10° NNW 01:11:26 50° ENE 01:15:58 14° SE
ADEOS II 4.3 01:08:06 10° NE 01:11:27 17° E 01:14:39 10° SE
NOSS 2-1 (C) 4.2 01:12:05 31° E 01:12:05 31° E 01:14:38 10° NE
Timation 1 Rocket 4.3 01:07:02 10° NNW 01:13:01 80° ENE 01:16:20 28° SSE
STARLINK-64 3.6 01:14:12 57° ENE 01:14:12 57° ENE 01:17:12 10° ENE
SL-4 R/B 3.4 01:09:20 10° NW 01:14:02 48° NNE 01:18:35 10° E
Cosmos 2297 Rocket 3.8 01:11:17 10° WNW 01:14:46 18° W 01:14:46 18° W
STARLINK-1287 4.2 01:16:13 44° ESE 01:16:13 44° ESE 01:19:50 10° ENE
NOSS 2-1 (D) 4.0 01:16:50 36° E 01:16:50 36° E 01:19:36 10° NE
USA 229 DEB 4.4 01:09:32 10° NNW 01:16:44 59° NE 01:24:14 10° SE
USA 229 4.4 01:09:39 10° NNW 01:16:50 58° NE 01:24:20 10° SE
NOSS 3-1 (C) 4.4 01:10:09 10° NNW 01:17:40 66° NE 01:26:17 10° SE
STARLINK-1207 4.2 01:17:09 39° WNW 01:17:53 45° NNW 01:21:31 10° NE
Cosmos 2184 Rocket 4.1 01:16:26 35° SSE 01:19:03 66° E 01:25:10 10° NNE
Cosmos 372 Rocket 3.8 01:14:14 10° NNW 01:19:23 77° WSW 01:20:47 49° S
CZ-4C R/B 3.8 01:16:43 14° W 01:20:26 28° NW 01:25:38 10° NNE
NPP 4.3 01:15:34 10° NNE 01:20:44 45° E 01:22:54 30° SSE
STARLINK-1266 4.3 01:20:25 36° WNW 01:21:18 43° NNW 01:24:54 10° NE
BREEZE-M DEB (TANK) 4.0 01:23:14 23° NE 01:23:14 23° NE 01:24:20 10° NE
STARLINK-1299 3.6 01:24:06 63° SSE 01:24:17 64° SE 01:28:31 10° ENE
STARLINK-1284 4.4 01:23:41 33° WNW 01:24:43 41° NNW 01:28:18 10° NE
STARLINK-1302 3.8 01:25:46 55° SE 01:25:46 55° SE 01:29:50 10° ENE
BREEZE-M DEB (TANK) 3.9 01:24:58 10° NW 01:27:00 19° N 01:28:49 10° NE
Alouette 2 Rocket 4.4 01:24:22 10° NNW 01:28:05 32° W 01:28:05 32° W
Spot 1 4.5 01:27:44 49° SSW 01:28:45 60° W 01:33:48 10° NNW
STARLINK-1273 3.6 01:30:32 59° SSE 01:30:44 60° SE 01:34:49 10° ENE
Cosmos 2322 Rocket 2.9 01:29:42 30° SSE 01:31:54 44° ESE 01:37:12 10° NE
Cosmos 2150 Rocket 3.8 01:26:51 10° NNW 01:32:01 80° WSW 01:33:54 40° S
STARLINK-1288 3.5 01:35:19 62° S 01:35:42 66° SE 01:39:48 10° ENE
STARLINK-61 3.8 01:35:51 48° SE 01:35:51 48° SE 01:39:37 10° ENE
Cosmos 1697 Rocket 4.3 01:36:19 16° W 01:39:30 25° NW 01:44:07 10° N
Cosmos 2181 Rocket 4.4 01:34:14 10° NNW 01:40:25 49° W 01:42:49 34° SW
STARLINK-1308 3.5 01:40:08 61° SSW 01:40:43 73° SE 01:44:51 10° ENE
DELTA 2 DEB (DPAF) 4.3 01:40:14 49° SW 01:41:00 56° W 01:45:25 10° NNW
Resurs 1-4 Rocket 2.1 01:37:23 10° NNE 01:42:44 84° ESE 01:44:54 37° S
Cosmos 1400 Rocket 3.2 01:40:28 10° NNW 01:44:26 47° W 01:44:46 46° WSW
Cosmos 1125 Rocket 3.5 01:40:26 10° NNW 01:45:40 84° ENE 01:48:54 24° SSE
Meteor 2-17 Rocket 4.4 01:42:53 32° S 01:45:57 81° E 01:52:05 10° N
STARLINK-1304 3.5 01:49:41 52° SW 01:50:38 86° SE 01:54:48 10° NE
Cosmos 2154 Rocket 4.0 01:49:52 28° S 01:53:22 78° E 01:59:35 10° N
STARLINK-48 4.3 01:53:48 28° W 01:55:25 46° NNW 01:59:12 10° NE
GEOS 3 Rocket 4.2 01:51:40 10° SE 01:56:45 60° NE 02:01:58 10° NNW
STARLINK-1278 3.7 01:55:21 40° WSW 01:56:49 76° NW 02:01:05 10° NE
Cosmos 1825 4.4 01:55:27 11° SE 01:58:01 20° E 02:00:47 10° NE
STARLINK-1280 3.7 01:57:08 38° WSW 01:58:40 74° NNW 02:02:55 10° NE
Meteor 1-27 4.2 01:53:15 10° NNW 01:58:44 62° W 02:01:18 31° SSW
Cosmos 2298 Rocket 4.5 01:53:49 10° NNW 01:58:49 42° WSW 02:00:18 34° SW
SL-16 R/B 2.5 01:55:29 27° S 01:58:56 67° WSW 02:05:06 10° NNW
Cosmos 836 Rocket 4.5 01:56:55 36° SSW 01:59:09 80° WNW 02:04:30 10° NNE
STARLINK-69 4.3 01:59:20 30° SE 01:59:33 30° SE 02:02:45 10° ENE
Cosmos 2227 4.3 01:53:55 10° NNW 01:59:34 59° WSW 02:02:39 27° S
Cosmos 1241 Rocket 4.5 01:57:57 30° SW 02:01:07 73° NW 02:07:22 10° NNE
STARLINK-21 4.4 02:00:55 29° SE 02:01:12 29° SE 02:04:23 10° ENE
Iridium 2 3.5 01:58:22 10° N 02:02:09 79° W 02:03:12 46° S
STARLINK-45 4.2 02:02:35 32° SSE 02:02:57 33° SE 02:06:15 10° ENE
Meteor 2-2 Rocket 4.4 01:58:10 10° N 02:04:14 88° E 02:08:42 19° S
NOSS 2-1 (E) 3.1 02:04:58 46° WSW 02:05:43 62° NW 02:09:17 10° NNE
STARLINK-76 4.2 02:05:36 31° SSE 02:06:04 32° SE 02:09:20 10° ENE
STARLINK-70 4.1 02:05:59 33° SSE 02:06:30 35° SE 02:09:53 10° ENE
STARLINK-1286 3.7 02:05:37 34° WSW 02:07:18 70° NW 02:11:29 10° NE
SL-16 R/B 2.2 02:04:36 31° SSW 02:07:23 80° WNW 02:13:06 10° NNE
STARLINK-23 4.2 02:07:11 32° SSE 02:07:41 34° SE 02:11:00 10° ENE
MOZ.5/SAFIR/RUBIN 5/SL-8 4.4 02:07:56 32° SW 02:08:57 36° W 02:13:15 10° NNW
CRYOSAT 2 4.3 02:04:13 10° N 02:09:08 77° W 02:11:31 31° SSW
STARLINK-32 4.1 02:08:37 32° SSE 02:09:08 34° SE 02:12:25 10° ENE
STARLINK-1281 3.8 02:08:48 33° WSW 02:10:32 69° NW 02:14:41 10° NE
STARLINK-40 4.1 02:10:18 33° SSE 02:10:55 36° SE 02:14:16 10° ENE
IRIDIUM 104 4.4 02:07:38 23° S 02:10:55 75° E 02:16:09 10° N
STARLINK-44 4.0 02:11:49 34° SSE 02:12:30 37° SE 02:15:52 10° ENE
CZ-2D R/B 2.4 02:08:45 10° N 02:13:49 53° WNW 02:16:21 28° SW
STARLINK-37 3.9 02:13:33 36° S 02:14:18 42° SE 02:17:45 10° ENE
Cosmos 2221 2.6 02:10:06 10° NNW 02:14:25 62° W 02:16:17 32° SSW
CZ-4C R/B 4.3 02:14:17 31° SW 02:15:15 35° W 02:19:19 10° NNW
STARLINK-1310 3.9 02:13:35 29° WSW 02:15:33 64° NNW 02:19:40 10° NE
STARLINK-36 4.0 02:14:56 34° S 02:15:44 40° SE 02:19:09 10° ENE
STARLINK-60 2.7 02:12:46 10° NW 02:15:57 77° SW 02:19:08 10° SE
USA 215 3.9 02:15:22 24° SSW 02:17:39 30° SW 02:23:17 10° WNW
STARLINK-63 3.8 02:18:10 36° S 02:19:05 45° SE 02:22:33 10° ENE
GP-B 4.4 02:15:29 10° NNW 02:19:10 26° WNW 02:20:25 23° WSW
Nadezhda 3 Rocket 4.0 02:13:35 10° NNW 02:19:53 72° W 02:24:39 19° S
IRIDIUM 114 4.3 02:16:46 23° S 02:20:03 89° W 02:25:19 10° N
Cosmos 1315 Rocket 3.0 02:16:16 10° NNW 02:20:06 50° W 02:21:25 34° SSW
STARLINK-35 3.8 02:19:32 35° S 02:20:26 44° SE 02:23:52 10° ENE
STARLINK-1319 4.0 02:18:21 26° WSW 02:20:31 59° NNW 02:24:38 10° NE
Cosmos 1842 Rocket 4.1 02:17:25 10° NNW 02:21:38 42° W 02:23:13 30° SW
STARLINK-51 3.7 02:21:14 35° S 02:22:14 46° SE 02:25:43 10° ENE
CBERS-1 4.0 02:18:20 10° NNE 02:23:29 86° WNW 02:26:39 24° SSW
STARLINK-30 3.7 02:22:49 35° S 02:23:54 48° SE 02:27:24 10° ENE
STARLINK-72 3.6 02:24:13 35° S 02:25:17 49° SE 02:28:46 10° ENE
STARLINK-1277 4.1 02:23:08 23° W 02:25:31 55° NNW 02:29:36 10° NE
Shenzhou-11 Module 1.3 02:26:47 71° WNW 02:27:00 86° N 02:29:26 10° E
STARLINK-1021 4.4 02:26:14 27° S 02:27:54 40° SE 02:31:48 10° ENE
STARLINK-59 3.5 02:27:25 35° SSW 02:28:38 56° SE 02:32:08 10° ENE
Cosmos 2058 3.0 02:27:00 29° SSW 02:28:57 62° W 02:33:09 10° N
IRIDIUM 103 4.3 02:25:56 23° SSW 02:29:14 74° W 02:34:28 10° N
Cosmos 2360 Rocket 2.4 02:25:44 21° S 02:29:28 69° ESE 02:35:05 10° NNE
STARLINK-1010 4.3 02:28:17 27° SSW 02:30:08 44° SE 02:34:11 10° ENE
STARLINK-56 3.5 02:29:04 33° SSW 02:30:23 55° SE 02:33:57 10° ENE
STARLINK-1276 4.2 02:27:56 20° W 02:30:32 51° NNW 02:34:35 10° NE
STARLINK-73 3.5 02:30:38 33° SSW 02:32:00 58° SE 02:35:35 10° ENE
STARLINK-1019 4.2 02:30:59 26° SSW 02:32:49 44° SE 02:36:47 10° ENE
STARLINK-38 3.4 02:32:12 32° SSW 02:33:38 60° SE 02:37:13 10° ENE
STARLINK-65 3.4 02:33:46 31° SSW 02:35:16 62° SE 02:38:52 10° ENE
STARLINK-1305 4.4 02:32:41 18° W 02:35:30 48° NNW 02:39:32 10° NE
STARLINK-68 3.3 02:34:23 31° SW 02:35:57 68° SE 02:39:36 10° ENE
STARLINK-1306 4.5 02:33:14 17° W 02:36:11 46° NNW 02:40:15 10° NE
STARLINK-53 3.3 02:35:24 31° SW 02:36:58 68° SE 02:40:35 10° ENE
STARLINK-1012 4.1 02:35:47 25° SSW 02:37:48 48° SE 02:41:48 10° ENE
Cosmos 1980 Rocket 4.2 02:34:19 10° W 02:37:55 17° NW 02:41:31 10° N
STARLINK-50 3.5 02:37:26 28° SSW 02:39:14 64° SE 02:43:01 10° ENE
STARLINK-1262 4.5 02:37:30 16° W 02:40:32 44° NNW 02:44:32 10° NE
CZ-4B R/B 4.2 02:36:18 10° N 02:41:14 42° WNW 02:44:31 20° SW
Cosmos 2333 Rocket 3.6 02:38:10 10° SSE 02:43:08 33° ESE 02:48:09 10° NE
STARLINK-71 3.5 02:41:45 25° SW 02:43:58 74° SE 02:47:59 10° ENE
Meteor 1-28 Rocket 3.8 02:41:43 10° SSE 02:45:24 57° ENE 02:49:05 10° N
Cosmos 2219 Rocket 3.5 02:42:19 10° SSE 02:47:15 33° ESE 02:52:11 10° NE
STARLINK-1026 3.9 02:45:20 23° SSW 02:47:43 58° SE 02:51:48 10° ENE
Cosmos 2322 4.3 02:43:30 13° S 02:48:30 53° ESE 02:54:04 10° NNE
STARLINK-29 2.8 02:45:36 10° NW 02:48:48 81° SW 02:51:58 10° SE
ADEOS II 2.2 02:46:22 10° N 02:51:34 62° WNW 02:55:36 17° SSW
STARLINK-1013 3.8 02:50:08 22° SW 02:52:41 64° SE 02:56:48 10° ENE
SL-4 R/B 2.6 02:49:14 10° WNW 02:53:48 45° SW 02:58:09 10° SSE
IRS-1D 4.1 02:49:18 10° N 02:54:18 46° WNW 02:58:00 17° SW
Cosmos 2263 Rocket 3.3 02:50:38 10° NW 02:54:58 24° WSW 02:57:35 17° SW
ERS-2 2.6 02:51:25 10° SSE 02:55:02 63° ENE 02:58:40 10° N
IDEFIX/ARIANE 42P 3.5 02:50:02 10° NNE 02:55:06 47° E 03:00:08 10° S
Cosmos 1606 3.8 02:52:04 10° N 02:55:42 44° ENE 02:59:21 10° SSE
STARLINK-25 3.1 02:53:37 22° SW 02:55:43 85° NW 02:59:11 10° NE
ATLAS 5 CENTAUR R/B 3.9 02:55:35 10° SE 02:57:35 13° ESE 02:59:40 10° E
STARLINK-1009 3.7 02:54:54 20° SW 02:57:39 70° SE 03:01:47 10° ENE
Cosmos 2341 Rocket 4.2 02:52:37 15° SSW 02:57:49 61° W 03:04:06 10° N
Cosmos 1892 3.9 02:56:52 18° WSW 02:58:43 27° WNW 03:01:59 10° NNW
BREEZE-M R/B 3.9 02:55:35 10° NW 02:58:48 32° NNE 03:01:08 10° E
ARIANE 5 R/B 2.4 02:55:45 10° NNE 03:00:47 83° WNW 03:05:23 12° SSW
STARLINK-1015 3.6 02:59:41 19° SW 03:02:38 77° SE 03:06:46 10° NE
STARLINK-1320 4.4 03:00:06 10° NW 03:03:05 39° NNE 03:06:02 10° ESE
STARLINK-1322 4.4 03:00:27 10° NW 03:03:26 40° NNE 03:06:24 10° ESE
STARLINK-1324 4.4 03:00:46 10° NW 03:03:45 40° NNE 03:06:43 10° ESE
STARLINK-1294 4.4 03:01:04 10° NW 03:04:03 40° NNE 03:07:04 10° ESE
STARLINK-1261 4.4 03:01:28 10° NW 03:04:27 40° NNE 03:07:25 10° ESE
STARLINK-1325 4.3 03:01:48 10° NW 03:04:48 40° NNE 03:07:46 10° ESE
STARLINK-1333 4.3 03:02:11 10° NW 03:05:10 41° NNE 03:08:08 10° ESE
CZ-2C R/B 3.7 03:01:40 10° NNE 03:05:19 45° E 03:09:01 10° S
STARLINK-1334 4.3 03:02:28 10° NW 03:05:26 41° NNE 03:08:25 10° ESE
Cosmos 1408 Rocket 4.4 03:01:28 10° SSE 03:05:36 47° E 03:09:44 10° NNE
STARLINK-1326 4.3 03:02:47 10° NW 03:05:46 41° NNE 03:08:44 10° ESE
CZ-2D R/B 3.7 03:01:31 10° NNE 03:05:48 79° ESE 03:10:10 10° S
STARLINK-1323 4.3 03:03:09 10° NW 03:06:09 41° NNE 03:09:08 10° ESE
STARLINK-1349 4.3 03:03:27 10° NW 03:06:27 42° NNE 03:09:26 10° ESE
Cosmos 1959 Rocket 4.4 03:00:35 10° S 03:06:43 84° W 03:12:52 10° N
STARLINK-1336 4.3 03:03:47 10° NW 03:06:47 42° NNE 03:09:45 10° ESE
STARLINK-24 3.6 03:03:58 16° WSW 03:07:04 73° NW 03:11:06 10° NE
STARLINK-1331 4.3 03:04:10 10° NW 03:07:10 42° NNE 03:10:09 10° ESE
STARLINK-1344 4.2 03:04:28 10° NW 03:07:28 42° NNE 03:10:27 10° ESE
USA 229 DEB 4.5 03:00:57 10° NW 03:07:28 35° WSW 03:14:10 10° S
USA 229 4.5 03:01:03 10° NW 03:07:34 35° WSW 03:14:18 10° S
STARLINK-1016 3.6 03:04:27 17° SW 03:07:35 83° SE 03:11:45 10° NE
IRS-1C 4.4 03:02:30 10° N 03:07:43 56° WNW 03:12:23 13° SW
STARLINK-1343 4.2 03:04:50 10° NW 03:07:51 43° NNE 03:10:51 10° ESE
STARLINK-1346 4.2 03:05:06 10° NW 03:08:09 43° NNE 03:11:11 10° ESE
STARLINK-1328 4.2 03:05:34 10° NW 03:08:34 43° NNE 03:11:34 10° ESE
STARLINK-1354 4.2 03:05:51 10° NW 03:08:51 44° NNE 03:11:51 10° ESE
STARLINK-1347 4.2 03:06:07 10° NW 03:09:08 44° NNE 03:12:08 10° ESE
STARLINK-1357 4.2 03:06:33 10° NW 03:09:35 44° NNE 03:12:35 10° ESE
Cosmos 1844 3.9 03:03:57 10° NNW 03:09:47 78° ENE 03:15:34 10° SSE
STARLINK-1335 4.1 03:06:50 10° NW 03:09:52 44° NNE 03:12:52 10° ESE
STARLINK-1327 4.1 03:07:11 10° NW 03:10:12 45° NNE 03:13:13 10° ESE
STARLINK-1340 4.1 03:07:29 10° NW 03:10:30 45° NNE 03:13:30 10° ESE
STARLINK-1356 4.1 03:07:52 10° NW 03:10:54 45° NNE 03:13:54 10° ESE
STARLINK-1345 4.1 03:08:10 10° NW 03:11:12 46° NNE 03:14:13 10° ESE
STARLINK-1355 4.1 03:08:32 10° NW 03:11:34 46° NNE 03:14:35 10° ESE
STARLINK-1321 4.1 03:08:53 10° NW 03:11:55 46° NNE 03:14:56 10° ESE
STARLINK-1358 4.0 03:09:16 10° NW 03:12:18 47° NNE 03:15:19 10° ESE
STARLINK-1008 3.6 03:09:15 15° SW 03:12:35 90° NW 03:16:45 10° NE
STARLINK-1332 4.0 03:09:33 10° NW 03:12:35 47° NNE 03:15:37 10° ESE
STARLINK-1348 4.0 03:09:53 10° NW 03:12:55 47° NNE 03:15:57 10° ESE
STARLINK-1330 4.0 03:10:13 10° NW 03:13:15 47° NNE 03:16:17 10° ESE
STARLINK-1363 4.0 03:10:33 10° NW 03:13:35 48° NNE 03:16:37 10° ESE
STARLINK-1337 4.0 03:10:55 10° NW 03:13:58 48° NNE 03:17:00 10° ESE
STARLINK-1342 4.0 03:11:14 10° NW 03:14:17 48° NNE 03:17:19 10° ESE
STARLINK-1364 3.9 03:11:34 10° NW 03:14:37 49° NNE 03:17:39 10° ESE
STARLINK-1376 3.9 03:11:54 10° NW 03:14:57 49° NNE 03:17:59 10° ESE
STARLINK-1360 3.9 03:12:14 10° NW 03:15:18 49° NNE 03:18:20 10° ESE
STARLINK-1361 3.9 03:12:35 10° NW 03:15:38 50° NNE 03:18:40 10° ESE
STARLINK-81 3.5 03:12:44 14° WSW 03:15:46 63° NW 03:19:23 10° NE
STARLINK-1367 3.9 03:12:51 10° NW 03:15:57 51° NNE 03:19:01 10° ESE
Cosmos 2322 Rocket 3.4 03:11:31 11° WSW 03:16:05 29° NW 03:20:58 10° N
STARLINK-1366 3.9 03:13:14 10° NW 03:16:17 50° NNE 03:19:20 10° ESE
NOSS 3-1 (A) 4.5 03:09:27 10° NW 03:16:48 45° WSW 03:24:59 10° S
CZ-4B R/B 4.3 03:14:47 10° ESE 03:16:57 18° ENE 03:19:09 10° NNE
Meteor 2-3 Rocket 4.3 03:11:57 10° S 03:17:25 59° E 03:22:54 10° NNE
STARLINK-54 3.7 03:14:25 13° WSW 03:17:32 55° NNW 03:21:06 10° NE
SL-8 Rocket 4.2 03:11:28 11° SSW 03:17:32 58° WNW 03:23:42 10° N
STARLINK-1014 3.6 03:14:03 14° SW 03:17:33 83° NW 03:21:42 10° NE
Cosmos 1151 Rocket 3.2 03:13:49 10° N 03:18:14 81° E 03:22:36 10° S
STARLINK-77 3.6 03:15:52 13° WSW 03:19:01 59° NNW 03:22:38 10° NE
Cosmos 2344 4.4 03:11:57 10° S 03:19:04 44° ESE 03:26:18 10° NE
Cosmos 2151 3.5 03:17:06 12° SSW 03:20:45 43° WNW 03:24:53 10° N
Lacrosse 5 rocket 2.5 03:17:51 10° SSW 03:21:31 32° SE 03:25:00 10° ENE
Resurs 1-4 Rocket 4.1 03:19:04 10° NNW 03:21:50 15° WNW 03:24:36 10° W
Cosmos 2218 Rocket 4.2 03:15:38 10° SSW 03:21:57 64° W 03:28:20 10° N
H-2A R/B 2.1 03:17:50 10° S 03:22:15 78° WSW 03:26:47 10° NNW
STARLINK-1025 3.7 03:18:49 13° WSW 03:22:33 77° NW 03:26:43 10° NE
COBE Rocket 4.3 03:18:33 10° S 03:23:25 48° W 03:28:25 10° NNW
Cosmos 1766 Rocket 3.6 03:19:09 10° SSW 03:23:26 62° W 03:27:44 10° N
STARLINK-79 3.8 03:20:34 11° WSW 03:23:56 54° NNW 03:27:30 10° NE
STARLINK-52 3.3 03:21:01 10° WNW 03:24:03 40° SW 03:27:05 10° SSE
STARLINK-78 3.8 03:22:08 11° WSW 03:25:34 52° NNW 03:29:08 10° NE
Cosmos 1408 4.2 03:23:51 12° WSW 03:26:20 21° WNW 03:29:10 10° NNW
Okean 3 Rocket 4.0 03:22:07 10° SSW 03:26:32 49° WNW 03:30:58 10° N
STARLINK-1338 4.5 03:22:53 10° NW 03:26:48 52° NNE 03:30:42 10° ESE
STARLINK-57 3.9 03:23:44 10° WSW 03:27:14 48° NNW 03:30:45 10° NE
STARLINK-1017 3.8 03:23:34 11° WSW 03:27:30 71° NW 03:31:39 10° NE
STARLINK-49 3.9 03:25:14 10° WSW 03:28:45 49° NNW 03:32:17 10° NE
Cosmos 1515 Rocket 4.1 03:25:49 10° N 03:30:09 61° E 03:34:26 10° SSE
STARLINK-27 4.0 03:26:58 10° WSW 03:30:29 48° NNW 03:34:01 10° NE
STARLINK-74 4.0 03:28:35 10° WSW 03:32:06 47° NNW 03:35:37 10° NE
STARLINK-1023 3.9 03:28:22 10° WSW 03:32:28 66° NNW 03:36:37 10° NE
Spot 4 Rocket 4.2 03:27:26 10° N 03:32:30 60° WNW 03:37:31 10° SSW
Cosmos 1825 3.4 03:30:16 11° SW 03:33:21 26° WNW 03:36:34 10° NNW
STARLINK-39 4.0 03:30:15 10° WSW 03:33:44 45° NNW 03:37:15 10° NE
STARLINK-1371 4.2 03:31:02 10° NW 03:34:56 58° NNE 03:38:50 10° ESE
STARLINK-31 4.1 03:31:56 10° WSW 03:35:24 44° NNW 03:38:55 10° NE
STARLINK-69 4.2 03:33:35 10° W 03:36:58 40° NNW 03:40:23 10° NE
STARLINK-1007 4.0 03:33:25 10° WSW 03:37:31 61° NNW 03:41:38 10° NE
STARLINK-21 4.2 03:35:15 10° W 03:38:42 41° NNW 03:42:09 10° NE
SL-08 R/B 4.3 03:34:58 10° SSW 03:38:51 26° W 03:42:44 10° NW
STARLINK-1341 4.1 03:35:24 10° NW 03:39:20 63° NNE 03:43:15 10° ESE
STARLINK-45 4.4 03:37:07 10° W 03:40:31 38° NNW 03:43:57 10° NE
STARLINK-1048 4.1 03:38:25 10° WSW 03:42:30 56° NNW 03:46:35 10° NE
STARLINK-76 4.3 03:40:12 10° W 03:43:37 38° NNW 03:47:03 10° NE
Iridium 4 Rocket 4.4 03:38:49 10° SSE 03:43:43 55° E 03:49:06 10° N
Cosmos 1346 Rocket 4.1 03:40:01 10° SSE 03:43:47 42° E 03:47:34 10° NNE
Cosmos 1818 4.0 03:38:36 10° SSW 03:43:56 64° ESE 03:49:20 10° NE
Cosmos 2237 Rocket 3.7 03:38:59 10° SSE 03:44:00 34° ESE 03:49:05 10° NE
STARLINK-1374 4.0 03:40:02 10° NW 03:44:01 68° NE 03:48:00 10° ESE
STARLINK-70 4.4 03:40:50 10° W 03:44:16 37° NNW 03:47:43 10° NE
STARLINK-23 4.4 03:41:52 10° W 03:45:16 37° NNW 03:48:41 10° NE
